EW3012 Livadea RO current weather conditions

sailwx.info

Last reported at 2018-Jul-11 09:30 UTC.
Time now 2018-Aug-21 01:57 UTC

Location: N 45°12' E 025°55'.
View on Google Maps.

See reports from other nearby stations

  
Tides and Currents Weather Stations Pressure Air Temp Water Temp Dewpoint Dewpoint Depression Visibility Wind Speed Wind Dir Waves Ship Positions
date/time (UTC)wind fromknots sea level pressurealtimeterstation pressurevisibilityair tempwater tempwave heightnotes
2018-Aug-21 01:09 248 13.9
2018-Aug-21 01:04 253 13.9
2018-Aug-21 00:59 260 0 gusting 4 13.9
2018-Aug-21 00:54 229 1 gusting 4 14.4
2018-Aug-21 00:49 271 0 gusting 4 14.4
2018-Aug-21 00:44 267 13.9
2018-Aug-21 00:38 229 13.9
2018-Aug-21 00:33 231 13.9
2018-Aug-21 00:28 260 13.9
2018-Aug-21 00:23 243 13.9
2018-Aug-21 00:18 311 14.4
2018-Aug-21 00:13 200 14.4
2018-Aug-21 00:08 278 14.4
2018-Aug-21 00:02 326 0 gusting 2 14.4
2018-Aug-20 23:57 326 1 gusting 6 14.4
2018-Aug-20 23:52 288 0 gusting 6 14.4
2018-Aug-20 23:47 278 14.4
2018-Aug-20 23:42 275 14.4
2018-Aug-20 23:37 252 0 gusting 4 14.4
2018-Aug-20 23:31 269 0 gusting 4 14.4
2018-Aug-20 23:26 245 14.4
2018-Aug-20 23:21 264 14.4
2018-Aug-20 23:16 291 14.4
2018-Aug-20 23:11 290 14.4
2018-Aug-20 23:06 290 14.4
2018-Aug-20 23:00 293 15.0
2018-Aug-20 22:55 276 15.0
2018-Aug-20 22:50 063 15.0
2018-Aug-20 22:45 064 15.0
2018-Aug-20 22:40 063 0 gusting 3 15.0
2018-Aug-20 22:35 263 1 gusting 4 15.6
2018-Aug-20 22:30 295 2 gusting 6 15.6
2018-Aug-20 22:24 286 1 gusting 6 15.6
2018-Aug-20 22:19 262 1 gusting 6 15.6
2018-Aug-20 22:14 277 3 gusting 6 15.6
2018-Aug-20 22:09 264 3 gusting 6 15.6
2018-Aug-20 22:04 266 3 gusting 6 15.6
2018-Aug-20 21:59 280 3 gusting 6 15.6
2018-Aug-20 21:54 283 3 gusting 6 15.6
2018-Aug-20 21:49 218 2 gusting 6 15.6
2018-Aug-20 21:44 259 1 gusting 5 15.6
2018-Aug-20 21:38 281 1 gusting 4 15.6
2018-Aug-20 21:33 264 1 gusting 4 15.6
2018-Aug-20 21:28 283 2 gusting 5 15.6
2018-Aug-20 21:23 266 2 gusting 5 15.6
2018-Aug-20 21:18 263 0 gusting 4 15.6
2018-Aug-20 21:13 250 1 gusting 5 16.1
2018-Aug-20 21:08 267 2 gusting 5 16.1
2018-Aug-20 21:02 252 1 gusting 5 15.6
2018-Aug-20 20:57 262 0 gusting 5 15.6
2018-Aug-20 20:52 284 15.6
2018-Aug-20 20:47 345 15.6
2018-Aug-20 20:42 344 15.6
2018-Aug-20 20:37 301 0 gusting 3 15.6
2018-Aug-20 20:31 297 0 gusting 3 16.1
2018-Aug-20 20:26 257 16.1
2018-Aug-20 20:21 228 16.1
2018-Aug-20 20:16 314 1 gusting 5 16.1
2018-Aug-20 20:11 298 2 gusting 5 16.1
2018-Aug-20 20:06 268 1 gusting 5 16.1
2018-Aug-20 20:01 256 0 gusting 2 16.1
2018-Aug-20 19:55 012 16.1
2018-Aug-20 19:50 012 16.1
2018-Aug-20 19:45 013 16.1
2018-Aug-20 19:40 012 16.1
2018-Aug-20 19:35 012 16.7
2018-Aug-20 19:30 013 0 gusting 6 16.7
2018-Aug-20 19:25 294 1 gusting 6 16.7
2018-Aug-20 19:20 266 2 gusting 6 17.2
2018-Aug-20 19:15 255 1 gusting 6 17.2
2018-Aug-20 19:10 245 2 gusting 6 17.2
2018-Aug-20 19:05 296 3 gusting 6 17.2
2018-Aug-20 18:59 255 3 gusting 6 17.2
2018-Aug-20 18:55 267 3 gusting 6 17.2
2018-Aug-20 18:49 264 2 gusting 5 17.2
2018-Aug-20 18:44 294 2 gusting 6 17.2
2018-Aug-20 18:39 226 2 gusting 6 17.2
2018-Aug-20 18:34 252 2 gusting 6 17.2
2018-Aug-20 18:29 275 1 gusting 6 17.2
2018-Aug-20 18:24 276 0 gusting 4 17.2
2018-Aug-20 18:19 281 0 gusting 2 17.2
2018-Aug-20 18:14 285 17.2
2018-Aug-20 18:09 287 17.8
2018-Aug-20 18:04 289 17.8
2018-Aug-20 17:59 296 17.8
2018-Aug-20 17:54 297 17.8
2018-Aug-20 17:49 302 17.8
2018-Aug-20 17:44 303 18.3
2018-Aug-20 17:38 304 18.3
2018-Aug-20 17:34 304 0 gusting 3 18.3
2018-Aug-20 17:28 301 0 gusting 3 18.9
2018-Aug-20 17:23 261 0 gusting 5 18.9
2018-Aug-20 17:18 267 1 gusting 5 18.9
2018-Aug-20 17:13 274 2 gusting 5 18.9
2018-Aug-20 17:08 276 2 gusting 5 18.9
2018-Aug-20 17:03 252 2 gusting 4 18.9
2018-Aug-20 16:58 289 1 gusting 4 19.4
2018-Aug-20 16:53 269 19.4
2018-Aug-20 16:48 243 0 gusting 2 19.4
2018-Aug-20 16:43 274 1 gusting 4 19.4
2018-Aug-20 16:38 243 1 gusting 4 19.4
2018-Aug-20 16:33 260 1 gusting 4 19.4
2018-Aug-20 16:27 271 2 gusting 4 19.4
2018-Aug-20 16:22 291 1 gusting 4 19.4
2018-Aug-20 16:17 278 1 gusting 4 19.4
2018-Aug-20 16:12 290 1 gusting 4 19.4
2018-Aug-20 16:07 264 1 gusting 3 19.4
2018-Aug-20 16:02 300 1 gusting 3 19.4
2018-Aug-20 15:57 257 1 gusting 3 19.4
2018-Aug-20 15:52 262 1 gusting 3 19.4
2018-Aug-20 15:47 281 1 gusting 3 19.4
2018-Aug-20 15:42 269 1 gusting 3 19.4
2018-Aug-20 15:37 283 0 gusting 2 18.9
2018-Aug-20 15:32 290 0 gusting 2 18.9
2018-Aug-20 15:27 256 18.9
2018-Aug-20 15:22 265 18.9
2018-Aug-20 15:16 249 18.9
2018-Aug-20 15:12 249 18.9
2018-Aug-20 15:06 246 18.9
2018-Aug-20 15:01 290 18.9
2018-Aug-20 14:52 289 0 gusting 2 18.3
2018-Aug-20 14:47 265 1 gusting 3 18.3
2018-Aug-20 14:42 264 1 gusting 3 18.3
2018-Aug-20 14:37 260 1 gusting 4 18.3
2018-Aug-20 14:32 264 1 gusting 4 18.3
2018-Aug-20 14:27 277 1 gusting 4 18.3
2018-Aug-20 14:22 252 1 gusting 4 18.3
2018-Aug-20 14:17 276 0 gusting 3 17.8
2018-Aug-20 14:12 246 0 gusting 2 17.8
2018-Aug-20 14:07 285 0 gusting 2 17.8
2018-Aug-20 14:02 278 0 gusting 1 17.8
2018-Aug-20 13:57 258 17.8
2018-Aug-20 13:51 342 0 gusting 1 17.8
2018-Aug-20 13:46 013 0 gusting 1 17.8
2018-Aug-20 13:41 352 0 gusting 1 17.2
2018-Aug-20 13:36 006 0 gusting 2 17.2
2018-Aug-20 13:31 321 0 gusting 2 17.2
2018-Aug-20 13:26 256 1 gusting 6 17.2
2018-Aug-20 13:21 271 2 gusting 4 17.2
2018-Aug-20 13:16 255 2 gusting 6 17.2
2018-Aug-20 13:11 269 2 gusting 5 17.2
2018-Aug-20 13:06 229 2 gusting 5 16.7
2018-Aug-20 13:01 259 2 gusting 6 16.7
2018-Aug-20 12:56 262 1 gusting 6 16.7
2018-Aug-20 12:50 217 0 gusting 2 16.7
2018-Aug-20 12:46 342 16.7
2018-Aug-20 12:40 323 0 gusting 2 16.7
2018-Aug-20 12:35 321 0 gusting 2 16.7
2018-Aug-20 12:30 124 2 gusting 2 17.2
2018-Aug-20 12:25 136 4 17.8
2018-Aug-20 12:16 028 6 gusting 17 20.0
2018-Aug-20 12:11 336 1 23.3
2018-Aug-20 12:02 010 1 gusting 4 28.3
2018-Aug-20 11:57 351 1 gusting 6 28.9
2018-Aug-20 11:52 262 1 gusting 6 28.9
2018-Aug-20 11:47 278 1 gusting 3 29.4
2018-Aug-20 11:42 245 1 gusting 3 29.4
2018-Aug-20 11:37 215 1 gusting 5 28.9
2018-Aug-20 11:32 140 1 gusting 5 29.4
2018-Aug-20 11:27 278 1 gusting 4 29.4
2018-Aug-20 11:21 131 1 gusting 4 28.9
2018-Aug-20 11:16 051 1 gusting 3 28.3
2018-Aug-20 11:11 012 1 gusting 4 28.9
2018-Aug-20 11:06 336 1 gusting 4 28.9
2018-Aug-20 11:01 035 0 gusting 3 29.4
2018-Aug-20 10:56 150 0 gusting 3 29.4
2018-Aug-20 10:51 239 0 gusting 3 29.4
2018-Aug-20 10:46 262 0 gusting 3 29.4
2018-Aug-20 10:41 207 1 gusting 5 28.9
2018-Aug-20 10:36 159 1 gusting 5 29.4
2018-Aug-20 10:30 208 0 gusting 4 29.4
2018-Aug-20 10:25 153 0 gusting 4 29.4
2018-Aug-20 10:20 219 0 gusting 5 29.4
2018-Aug-20 10:15 224 0 gusting 5 28.9
2018-Aug-20 10:10 082 0 gusting 3 28.9
2018-Aug-20 10:05 186 0 gusting 4 28.3
2018-Aug-20 10:00 183 0 gusting 4 28.3
2018-Aug-20 09:55 232 1 gusting 4 28.3
2018-Aug-20 09:50 111 2 gusting 6 28.3
2018-Aug-20 09:45 346 1 gusting 6 28.3
2018-Aug-20 09:39 141 0 gusting 3 28.9
2018-Aug-20 09:34 200 0 gusting 5 28.3
2018-Aug-20 09:29 023 1 gusting 5 28.3
2018-Aug-20 09:24 013 1 gusting 5 28.3
2018-Aug-20 09:19 127 1 gusting 4 28.3
2018-Aug-20 09:14 043 1 gusting 4 28.3
2018-Aug-20 09:09 148 1 gusting 5 27.8
2018-Aug-20 09:04 142 1 gusting 4 27.8
2018-Aug-20 08:58 124 1 gusting 6 27.8
2018-Aug-20 08:53 146 1 gusting 4 27.8
2018-Aug-20 08:48 120 2 gusting 6 28.3
2018-Aug-20 08:43 124 1 gusting 6 28.3
2018-Aug-20 08:38 151 1 gusting 5 28.3
2018-Aug-20 08:33 184 1 gusting 3 28.3
2018-Aug-20 08:28 124 1 gusting 5 28.3
2018-Aug-20 08:23 127 1 gusting 5 28.3
2018-Aug-20 08:18 146 0 gusting 3 28.3
2018-Aug-20 08:13 152 0 gusting 2 28.3
2018-Aug-20 08:08 134 0 gusting 3 28.3
2018-Aug-20 08:02 134 1 gusting 3 27.8
2018-Aug-20 07:57 156 0 gusting 4 27.8
2018-Aug-20 07:52 138 1 gusting 4 27.2
2018-Aug-20 07:47 117 1 gusting 4 27.2
2018-Aug-20 07:42 133 1 gusting 4 27.2
2018-Aug-20 07:37 162 1 gusting 4 27.2
2018-Aug-20 07:32 123 0 gusting 2 27.2
2018-Aug-20 07:27 131 27.8
2018-Aug-20 07:22 257 27.2
2018-Aug-20 07:17 123 27.2
2018-Aug-20 07:12 275 26.7
2018-Aug-20 07:06 243 0 gusting 1 26.1
2018-Aug-20 07:01 242 0 gusting 1 25.6
2018-Aug-20 06:56 293 0 gusting 1 25.6
2018-Aug-20 06:51 277 26.1
2018-Aug-20 06:46 239 26.1
2018-Aug-20 06:41 293 25.6
2018-Aug-20 06:36 283 24.4
2018-Aug-20 06:31 297 23.9
2018-Aug-20 06:26 293 23.3
2018-Aug-20 06:21 293 23.3
2018-Aug-20 06:15 278 22.8
2018-Aug-20 06:10 239 22.8
2018-Aug-20 06:05 284 21.7
2018-Aug-20 05:55 271 21.7
2018-Aug-20 05:50 310 21.7
2018-Aug-20 05:45 318 21.1
2018-Aug-20 05:40 315 20.6
2018-Aug-20 05:35 325 20.6
2018-Aug-20 05:30 268 20.6
2018-Aug-20 05:25 223 20.0
2018-Aug-20 05:20 224 19.4
2018-Aug-20 05:15 224 18.9
2018-Aug-20 05:10 224 0 gusting 3 17.8
2018-Aug-20 05:04 224 0 gusting 3 17.2
2018-Aug-20 04:59 266 0 gusting 2 17.2
2018-Aug-20 04:54 241 17.2
2018-Aug-20 04:49 214 16.7
2018-Aug-20 04:44 214 16.1
2018-Aug-20 04:39 253 15.6
2018-Aug-20 04:34 253 15.6
2018-Aug-20 04:29 239 15.0
2018-Aug-20 04:24 239 14.4
2018-Aug-20 04:19 239 14.4
2018-Aug-20 04:13 015 13.9
2018-Aug-20 04:08 015 13.9
2018-Aug-20 04:03 015 13.9
2018-Aug-20 03:58 015 13.9
2018-Aug-20 03:53 015 13.9
2018-Aug-20 03:48 015 13.9
2018-Aug-20 03:43 016 13.9
2018-Aug-20 03:38 015 13.3
2018-Aug-20 03:33 015 13.9
2018-Aug-20 03:28 016 13.3
2018-Aug-20 03:23 016 13.3
2018-Aug-20 03:18 304 13.3
2018-Aug-20 03:13 304 13.3
2018-Aug-20 03:07 300 13.9
2018-Aug-20 03:02 222 13.9
2018-Aug-20 02:57 278 13.9
2018-Aug-20 02:52 294 13.9
2018-Aug-20 02:47 275 13.3
2018-Aug-20 02:42 282 13.3
2018-Aug-20 02:37 282 13.3
2018-Aug-20 02:32 278 13.3
2018-Aug-20 02:27 297 13.3
2018-Aug-20 02:21 280 13.3
2018-Aug-20 02:16 283 13.3
2018-Aug-20 02:11 302 13.3
2018-Aug-20 02:06 302 13.9